Tracking 35237 objects as of 5-Sep-2026
HD Live streaming from Space Station
objects crossing your sky now

STARLINK-30323

Track STARLINK-30323 now!
10-day predictions
STARLINK-30323 is classified as:


NORAD ID: 57634
Int'l Code: 2023-122C
Launch date: August 17, 2023
Source: United States (US)
Launch site: AIR FORCE EASTERN TEST RANGE (AFETR)
Your satellite tracking list
Your tracking list is empty




NASA's NSSDC Master Catalog

Two Line Element Set (TLE):
1 57634U 23122C   26247.09794207  .00000980  00000-0  45125-4 0  9992
2 57634  42.9977 153.7892 0001389 267.4063  92.6630 15.27582708169624
Source of the keplerian elements: AFSPC